Find Kosmos-1670

NORAD ID: 15930 Int'l Des: 1985-064 Owner: VMF Country: SU operational
LEOCIRCULAR

Live Position

Loading 3D Globe...

About Kosmos-1670

Description loading...

Upcoming Passes

Passes for default location (London). Set your location on the main map for personalized predictions.

Altitude History

Loading altitude history...

Two-Line Element Set

1 15930U 85064A 26106.23506611 -.00000059 00000-0 26720-4 0 9996
2 15930 64.9398 300.7094 0049597 62.1071 298.4999 13.83877175 45181
Epoch: Apr 16, 2026 • Age: 11 hours

Current Status

Altitude 966.8 km
Velocity 7.36 km/s
Sub-Earth Point 3.00°N, 19.85°E
Launch Date Aug 1, 1985
Age 40.7 years
Type other

Technical Details

Classification Payload
Mass 1154.00 kg
Dry Mass 1154.00 kg
Total Mass 4300.00 kg
Length 5.80 m
Diameter 1.30 m
Span 5.80 m
Shape Cyl
Manufacturer KOMET
Bus Type US-A reactor
Phase Status In Orbit
Owner/State VMF/SU

Most Searched